Location: Unspecified
(33.2407°S, 0.0000°E)
Time: 13:31:33
(UTC+00:00)

Envisat - Pass Details

Date: 23 May 2019
Orbit: 764 x 766 km, 98.1° (Epoch: 24 June)

Event Time Altitude Azimuth Distance (km) Brightness Sun altitude
Exits shadow 20:03:32 25° 294° (WNW) 1,509 4.9 -37.2°
Drops below altitude 10° 20:06:05 10° 316° (NW) 2,306 5.9 -37.7°
Sets 20:08:32 0° 324° (NW) 3,225 6.7 -38.2°
